User: anonymous   Login
Location: Gaspur (historical)
(33.7814°N, 118.2212°W)
Time: 16:32:48
(UTC+00:00)
Language:

Cosmos 1697 Rocket - Orbit

View from above orbital plane
View from above orbital plane
View from above satellite
View from above satellite

Ground track
Ground track

The orbit data is extracted from the following two-line orbital elements,

1 16182U 85097B   21018.74201257 -.00000262  00000-0 -10778-3 0  9995
2 16182  71.0020 128.5229 0009621 243.6156 223.2064 14.16253961821620
Epoch (UTC): 18 January 2021 17:48:29
Eccentricity: 0.0009621
inclination: 71.0020°
perigee height: 831 km
apogee height: 845 km
right ascension of ascending node: 128.5229°
argument of perigee: 243.6156°
revolutions per day: 14.16253961
mean anomaly at epoch: 223.2064°
orbit number at epoch: 82162

The dashed part of the orbit path shows where the satellite is in the earth's shadow,  

DLR